Saginaw Browne, MI

6:10 PM EDT on March 28, 2017 (GMT -0400)
Saginaw County-Browne

Weather History for KHYX - December, 2012

Change the Weather History Date:

Friday, December 14, 2012

  Actual Average (KMBS) Record (KMBS)
Temperature  
Mean Temperature 34 °F -  
Max Temperature 41 °F 33 °F 62 °F (2015)
Min Temperature 28 °F 21 °F 6 °F (2010)
Degree Days  
Heating Degree Days 30    
Moisture  
Dew Point 30 °F    
Average Humidity 88    
Maximum Humidity 100    
Minimum Humidity 70    
Precipitation  
Precipitation 0.00 in - - ()
Sea Level Pressure  
Sea Level Pressure 30.19 in    
Wind  
Wind Speed 6 mph (SSW)    
Max Wind Speed 10 mph    
Max Gust Speed -    
Visibility 9 miles    
Events      
Averages and records for this station are not official NWS values.
T = Trace of Precipitation, MM = Missing Value Source: NWS Daily Summary

Daily Weather History Graph

Daily Weather History Graph

Search for Another Location

Airport or City:

Trip Planner

Search our weather history database for the weather conditions in past years. The results will help you decide how hot, cold, wet, or windy it might be!

Date:

Astronomy

Dec. 14, 2012 Rise Set
Actual Time 8:00 AM EST 4:59 PM EST
Civil Twilight 7:28 AM EST 5:32 PM EST
Nautical Twilight 6:52 AM EST 6:08 PM EST
Astronomical Twilight 6:17 AM EST 6:43 PM EST
Moon 9:03 AM EST (12/14) 6:53 PM EST (12/14)
Length of Visible Light 10h 04m
Length of Day
8h 58m
Waxing Crescent, 3% of the Moon is Illuminated
Dec 14
Waxing Crescent
Dec 20
First Quarter
Dec 28
Full
Jan 4
Last Quarter
Jan 11
New

Hourly Weather History & Observations

Time (EST) Temp. Windchill Dew Point Humidity Pressure Visibility Wind Dir Wind Speed Gust Speed Precip Events Conditions
12:14 AM 33.8 °F 26.4 °F 26.6 °F 75% 30.12 in 10.0 mi SSW 9.2 mph - N/A   Clear
12:35 AM 33.8 °F 26.4 °F 26.6 °F 75% 30.12 in 10.0 mi SSW 9.2 mph - N/A   Clear
12:55 AM 33.8 °F 26.4 °F 28.4 °F 81% 30.12 in 10.0 mi SSW 9.2 mph - N/A   Clear
1:15 AM 33.8 °F 25.8 °F 28.4 °F 81% 30.12 in 10.0 mi SSW 10.4 mph - N/A   Clear
1:35 AM 33.8 °F 27.0 °F 28.4 °F 81% 30.12 in 10.0 mi SSW 8.1 mph - N/A   Clear
1:55 AM 33.8 °F 26.4 °F 28.4 °F 81% 30.12 in 10.0 mi SSW 9.2 mph - N/A   Clear
2:15 AM 33.8 °F 27.0 °F 28.4 °F 81% 30.13 in 10.0 mi SSW 8.1 mph - N/A   Clear
2:35 AM 32.0 °F 24.8 °F 28.4 °F 87% 30.13 in 10.0 mi SSW 8.1 mph - N/A   Clear
2:55 AM 32.0 °F 24.8 °F 28.4 °F 87% 30.14 in 10.0 mi SSW 8.1 mph - N/A   Clear
3:10 AM 32.0 °F 25.6 °F 28.4 °F 87% 30.14 in 10.0 mi SSW 6.9 mph - N/A   Clear
3:30 AM 32.0 °F 26.4 °F 28.4 °F 87% 30.14 in 10.0 mi SW 5.8 mph - N/A   Clear
3:51 AM 32.0 °F 26.4 °F 28.4 °F 87% 30.15 in 10.0 mi SW 5.8 mph - N/A   Clear
4:11 AM 32.0 °F 27.5 °F 28.4 °F 87% 30.15 in 10.0 mi SW 4.6 mph - N/A   Scattered Clouds
4:31 AM 32.0 °F 27.5 °F 28.4 °F 87% 30.15 in 10.0 mi WSW 4.6 mph - N/A   Scattered Clouds
4:51 AM 32.0 °F 27.5 °F 28.4 °F 87% 30.15 in 10.0 mi WSW 4.6 mph - N/A   Clear
5:11 AM 32.0 °F 27.5 °F 28.4 °F 87% 30.16 in 10.0 mi SW 4.6 mph - N/A   Clear
5:31 AM 32.0 °F 26.4 °F 28.4 °F 87% 30.16 in 10.0 mi SW 5.8 mph - N/A   Clear
5:51 AM 32.0 °F 26.4 °F 28.4 °F 87% 30.16 in 10.0 mi SW 5.8 mph - N/A   Clear
6:11 AM 32.0 °F 26.4 °F 28.4 °F 87% 30.17 in 10.0 mi SW 5.8 mph - N/A   Clear
6:31 AM 32.0 °F 26.4 °F 28.4 °F 87% 30.17 in 10.0 mi WSW 5.8 mph - N/A   Clear
6:52 AM 32.0 °F 27.5 °F 28.4 °F 87% 30.17 in 10.0 mi WSW 4.6 mph - N/A   Clear
7:14 AM 32.0 °F 26.4 °F 28.4 °F 87% 30.17 in 10.0 mi SW 5.8 mph - N/A   Clear
7:34 AM 32.0 °F 26.4 °F 28.4 °F 87% 30.18 in 10.0 mi SW 5.8 mph - N/A   Clear
7:54 AM 32.0 °F 27.5 °F 28.4 °F 87% 30.18 in 10.0 mi SW 4.6 mph - N/A   Clear
8:14 AM 30.2 °F - 28.4 °F 93% 30.18 in 10.0 mi Calm Calm - N/A   Clear
8:34 AM 32.0 °F - 28.4 °F 87% 30.18 in 10.0 mi Calm Calm - N/A   Clear
8:54 AM 32.0 °F 28.7 °F 28.4 °F 87% 30.19 in 10.0 mi SW 3.5 mph - N/A   Clear
9:15 AM 32.0 °F 28.7 °F 30.2 °F 93% 30.20 in 10.0 mi SW 3.5 mph - N/A   Clear
9:35 AM 33.8 °F 29.6 °F 30.2 °F 87% 30.21 in 10.0 mi WSW 4.6 mph - N/A   Clear
9:55 AM 33.8 °F 29.6 °F 30.2 °F 87% 30.21 in 10.0 mi WSW 4.6 mph - N/A   Clear
10:15 AM 35.6 °F 31.7 °F 30.2 °F 81% 30.22 in 10.0 mi WSW 4.6 mph - N/A   Clear
10:35 AM 37.4 °F - 32.0 °F 81% 30.23 in 10.0 mi Calm Calm - N/A   Clear
10:55 AM 37.4 °F - 32.0 °F 81% 30.24 in 10.0 mi Calm Calm - N/A   Clear
11:15 AM 37.4 °F 33.8 °F 32.0 °F 81% 30.24 in 10.0 mi North 4.6 mph - N/A   Clear
11:35 AM 37.4 °F 34.9 °F 32.0 °F 81% 30.24 in 10.0 mi North 3.5 mph - N/A   Clear
11:50 AM 37.4 °F 34.9 °F 32.0 °F 81% 30.23 in 10.0 mi NNE 3.5 mph - N/A   Clear
12:10 PM 37.4 °F 34.9 °F 32.0 °F 81% 30.23 in 10.0 mi North 3.5 mph - N/A   Clear
12:31 PM 37.4 °F - 32.0 °F 81% 30.23 in 10.0 mi Calm Calm - N/A   Clear
12:51 PM 37.4 °F - 32.0 °F 81% 30.23 in 10.0 mi Calm Calm - N/A   Clear
1:11 PM 37.4 °F - 32.0 °F 81% 30.22 in 10.0 mi Calm Calm - N/A   Clear
1:31 PM 39.2 °F - 32.0 °F 75% 30.21 in 10.0 mi Calm Calm - N/A   Clear
1:51 PM 39.2 °F - 32.0 °F 75% 30.21 in 10.0 mi Calm Calm - N/A   Clear
2:11 PM 41.0 °F - 32.0 °F 70% 30.21 in 10.0 mi Calm Calm - N/A   Clear
2:31 PM 41.0 °F - 32.0 °F 70% 30.19 in 10.0 mi Calm Calm - N/A   Clear
2:51 PM 41.0 °F 39.0 °F 32.0 °F 70% 30.19 in 10.0 mi ENE 3.5 mph - N/A   Clear
3:11 PM 41.0 °F 37.1 °F 32.0 °F 70% 30.19 in 10.0 mi NE 5.8 mph - N/A   Clear
3:31 PM 39.2 °F 34.2 °F 32.0 °F 75% 30.18 in 10.0 mi NNE 6.9 mph - N/A   Clear
3:52 PM 37.4 °F 32.8 °F 32.0 °F 81% 30.19 in 10.0 mi NNE 5.8 mph - N/A   Clear
4:12 PM 37.4 °F 32.1 °F 32.0 °F 81% 30.19 in 10.0 mi NE 6.9 mph - N/A   Clear
4:32 PM 35.6 °F 30.7 °F 32.0 °F 87% 30.20 in 10.0 mi NNE 5.8 mph - N/A   Clear
5:12 PM 33.8 °F 29.6 °F 32.0 °F 93% 30.19 in 10.0 mi NE 4.6 mph - N/A   Clear
5:32 PM 32.0 °F 26.4 °F 32.0 °F 100% 30.19 in 10.0 mi NE 5.8 mph - N/A   Clear
5:52 PM 32.0 °F 27.5 °F 32.0 °F 100% 30.19 in 10.0 mi NNE 4.6 mph - N/A   Clear
6:12 PM 32.0 °F 28.7 °F 32.0 °F 100% 30.19 in 7.0 mi NE 3.5 mph - N/A   Clear
6:33 PM 32.0 °F - 32.0 °F 100% 30.21 in 7.0 mi Calm Calm - N/A   Clear
6:53 PM 32.0 °F - 32.0 °F 100% 30.21 in 7.0 mi Calm Calm - N/A   Clear
7:13 PM 32.0 °F 28.7 °F 32.0 °F 100% 30.21 in 7.0 mi NE 3.5 mph - N/A   Clear
7:33 PM 32.0 °F 28.7 °F 32.0 °F 100% 30.22 in 7.0 mi NE 3.5 mph - N/A   Clear
7:53 PM 30.2 °F 25.4 °F 30.2 °F 100% 30.23 in 7.0 mi East 4.6 mph - N/A   Clear
8:13 PM 30.2 °F 24.3 °F 30.2 °F 100% 30.22 in 7.0 mi East 5.8 mph - N/A   Clear
8:33 PM 30.2 °F 24.3 °F 30.2 °F 100% 30.22 in 7.0 mi East 5.8 mph - N/A   Clear
8:53 PM 30.2 °F 24.3 °F 30.2 °F 100% 30.22 in 7.0 mi East 5.8 mph - N/A   Clear
9:13 PM 30.2 °F 24.3 °F 30.2 °F 100% 30.21 in 7.0 mi East 5.8 mph - N/A   Clear
9:34 PM 30.2 °F 26.7 °F 30.2 °F 100% 30.21 in 5.0 mi ENE 3.5 mph - N/A   Clear
9:54 PM 30.2 °F - 30.2 °F 100% 30.21 in 4.0 mi Calm Calm - N/A   Clear
10:14 PM 30.2 °F 26.7 °F 30.2 °F 100% 30.21 in 5.0 mi ENE 3.5 mph - N/A   Clear
10:34 PM 30.2 °F 26.7 °F 30.2 °F 100% 30.21 in 5.0 mi ENE 3.5 mph - N/A   Clear
10:54 PM 28.4 °F 23.3 °F 28.4 °F 100% 30.20 in 4.0 mi ENE 4.6 mph - N/A   Clear
11:14 PM 28.4 °F 23.3 °F 28.4 °F 100% 30.18 in 4.0 mi ENE 4.6 mph - N/A   Clear
11:34 PM 28.4 °F 24.6 °F 28.4 °F 100% 30.18 in 4.0 mi ENE 3.5 mph - N/A   Clear
11:54 PM 30.2 °F - 30.2 °F 100% 30.18 in 4.0 mi Calm Calm - N/A   Clear